Springfield, MO

2:59 PM CST on February 13, 2016 (GMT -0600)
Springfield-Branson Regional

Weather History for KSGF - May, 2013

Change the Weather History Date:

Tuesday, May 14, 2013

  Actual Average Record
Temperature  
Mean Temperature 73 °F 64 °F  
Max Temperature 87 °F 75 °F 88 °F (1947)
Min Temperature 59 °F 54 °F 36 °F (2000)
Degree Days  
Heating Degree Days 0 3  
Month to date heating degree days 135 61  
Since 1 July heating degree days 4487 4535  
Cooling Degree Days 8 3  
Month to date cooling degree days 14 24  
Year to date cooling degree days 31 49  
Growing Degree Days 23 (Base 50)    
Moisture  
Dew Point 51 °F    
Average Humidity 51    
Maximum Humidity 78    
Minimum Humidity 24    
Precipitation  
Precipitation 0.00 in 0.17 in 2.76 in (1956)
Month to date precipitation 1.91 2.49  
Year to date precipitation 17.66 15.42  
Snow  
Snow 0.00 in - - ()
Month to date snowfall 1.4  
Since 1 July snowfall 12.7  
Snow Depth 0.00 in    
Sea Level Pressure  
Sea Level Pressure 29.96 in    
Wind  
Wind Speed 14 mph (SW)    
Max Wind Speed 24 mph    
Max Gust Speed 32 mph    
Visibility 10 miles    
Events      
T = Trace of Precipitation, MM = Missing Value Source: NWS Daily Summary

Daily Weather History Graph

Daily Weather History Graph

Search for Another Location

Airport or City:

Trip Planner

Search our weather history database for the weather conditions in past years. The results will help you decide how hot, cold, wet, or windy it might be!

Date:

Astronomy

May. 14, 2013 Rise Set
Actual Time 6:05 AM CDT 8:14 PM CDT
Civil Twilight 5:36 AM CDT 8:43 PM CDT
Nautical Twilight 5:01 AM CDT 9:19 PM CDT
Astronomical Twilight 4:22 AM CDT 9:58 PM CDT
Moon 9:45 AM CDT (5/14) No Moon Set
Length of Visible Light 15h 07m
Length of Day
14h 09m
Waxing Crescent, 19% of the Moon is Illuminated
May 14
Waxing Crescent
May 17
First Quarter
May 24
Full
May 31
Last Quarter
Jun 8
New

Hourly Weather History & Observations

Time (CDT) Temp. Heat Index Dew Point Humidity Pressure Visibility Wind Dir Wind Speed Gust Speed Precip Events Conditions
12:52 AM 63.0 °F - 52.0 °F 67% 29.99 in 10.0 mi South 10.4 mph - N/A   Clear
1:52 AM 61.0 °F - 53.1 °F 75% 29.98 in 10.0 mi South 9.2 mph - N/A   Clear
2:52 AM 60.1 °F - 52.0 °F 75% 29.97 in 10.0 mi SSW 9.2 mph - N/A   Clear
3:52 AM 64.9 °F - 51.1 °F 61% 29.96 in 10.0 mi SSW 10.4 mph - N/A   Clear
4:52 AM 66.0 °F - 50.0 °F 56% 29.96 in 10.0 mi SW 12.7 mph - N/A   Clear
5:52 AM 64.9 °F - 48.9 °F 56% 29.96 in 10.0 mi SW 13.8 mph - N/A   Clear
6:52 AM 64.9 °F - 48.9 °F 56% 29.97 in 10.0 mi SW 11.5 mph - N/A   Clear
7:52 AM 68.0 °F - 48.9 °F 50% 29.98 in 10.0 mi SW 10.4 mph - N/A   Clear
8:52 AM 73.0 °F - 48.9 °F 42% 29.99 in 10.0 mi WSW 16.1 mph 28.8 mph N/A   Clear
9:52 AM 75.0 °F - 51.1 °F 43% 30.00 in 10.0 mi WSW 16.1 mph 25.3 mph N/A   Clear
10:52 AM 78.1 °F - 52.0 °F 40% 30.00 in 10.0 mi WSW 19.6 mph - N/A   Clear
11:52 AM 81.0 °F - 52.0 °F 36% 30.00 in 10.0 mi WSW 19.6 mph 27.6 mph N/A   Clear
12:52 PM 84.0 °F 82.5 °F 53.1 °F 34% 29.99 in 10.0 mi SW 21.9 mph 26.5 mph N/A   Clear
1:52 PM 84.9 °F 83.6 °F 55.0 °F 36% 29.96 in 10.0 mi SW 12.7 mph - N/A   Clear
2:52 PM 87.1 °F 85.3 °F 55.0 °F 33% 29.96 in 10.0 mi SW 17.3 mph 25.3 mph N/A   Clear
3:52 PM 87.1 °F - 46.9 °F 25% 29.94 in 10.0 mi WSW 23.0 mph 32.2 mph N/A   Clear
4:52 PM 87.1 °F - 48.9 °F 27% 29.93 in 10.0 mi WSW 13.8 mph 23.0 mph N/A   Clear
5:52 PM 84.0 °F - 51.1 °F 32% 29.93 in 10.0 mi SW 17.3 mph 21.9 mph N/A   Clear
6:52 PM 82.0 °F - 52.0 °F 35% 29.92 in 10.0 mi SW 10.4 mph - N/A   Clear
7:52 PM 75.9 °F - 52.0 °F 43% 29.92 in 10.0 mi SSW 10.4 mph - N/A   Clear
8:52 PM 70.0 °F - 52.0 °F 53% 29.92 in 10.0 mi South 9.2 mph - N/A   Clear
9:52 PM 72.0 °F - 52.0 °F 49% 29.93 in 10.0 mi SSW 13.8 mph - N/A   Clear
10:52 PM 66.9 °F - 52.0 °F 59% 29.94 in 10.0 mi South 9.2 mph - N/A   Clear
11:52 PM 64.0 °F - 52.0 °F 65% 29.95 in 10.0 mi South 8.1 mph - N/A   Clear